Location: Newark
(44.3867°N, 6.6531°E)
Time: 19:09:33
(UTC+00:00)

Envisat - Pass Details

Date: 25 January 2020
Orbit: 764 x 766 km, 98.1° (Epoch: 19 February)

Event Time Altitude Azimuth Distance (km) Brightness Sun altitude
Rises 06:11:01 0° 14° (NNE) 3,242 6.2 -8.8°
Reaches altitude 10° 06:13:21 10° 17° (NNE) 2,311 5.5 -8.5°
Maximum altitude 06:18:26 74° 102° (ESE) 800 3.3 -7.6°
Drops below altitude 10° 06:23:30 10° 188° (S) 2,294 5.6 -6.7°
Sets 06:25:48 0° 190° (S) 3,215 6.4 -6.4°
